BAW4811 LTFM-LYTV

Flight info

Callsign BAW4811
Flight time 1h 24m
Altitude 34000
Route VADEN1H/18 VADEN N618 BAKLO DCT LETNI DCT MAVAR DCT RETRA L604
Aircraft A320/M-VGDW/C

Departure

Time 2026-05-08 18:36
Airport İstanbul Airport (LTFM)

Arrival

Time 2026-05-08 20:00
Airport Tivat Airport (LYTV)
Time Latitude Longitude Altitude Speed Heading
2026-05-08 18:02 41.26515 28.74928 179 ft 0 kts 288°
2026-05-08 18:21 41.26513 28.74939 179 ft 3 kts 286°
2026-05-08 18:22 41.26507 28.74964 179 ft 3 kts 294°
2026-05-08 18:22 41.26499 28.74988 179 ft 3 kts 294°
2026-05-08 18:22 41.26491 28.75013 179 ft 3 kts 294°
2026-05-08 18:22 41.26482 28.75036 179 ft 2 kts 297°
2026-05-08 18:23 41.26479 28.75046 179 ft 1 kts 297°
2026-05-08 18:26 41.26482 28.75046 179 ft 1 kts 336°
2026-05-08 18:26 41.26502 28.75066 179 ft 8 kts 43°
2026-05-08 18:26 41.26547 28.75110 179 ft 10 kts 22°
2026-05-08 18:26 41.26606 28.75159 179 ft 7 kts 60°
2026-05-08 18:27 41.26608 28.75168 179 ft 0 kts 70°
2026-05-08 18:28 41.26610 28.75183 179 ft 7 kts 81°
2026-05-08 18:29 41.26678 28.75261 179 ft 21 kts
2026-05-08 18:29 41.26824 28.75256 179 ft 22 kts
2026-05-08 18:29 41.26980 28.75254 179 ft 23 kts 359°
2026-05-08 18:29 41.27126 28.75269 179 ft 12 kts 46°
2026-05-08 18:30 41.27184 28.75357 179 ft 14 kts 30°
2026-05-08 18:30 41.27287 28.75364 179 ft 16 kts 358°
2026-05-08 18:30 41.27387 28.75364 179 ft 16 kts 360°
2026-05-08 18:30 41.27509 28.75362 179 ft 19 kts 356°
2026-05-08 18:31 41.27656 28.75356 179 ft 23 kts 359°
2026-05-08 18:31 41.27824 28.75353 179 ft 25 kts 359°
2026-05-08 18:31 41.28008 28.75349 180 ft 27 kts 359°
2026-05-08 18:31 41.28186 28.75346 180 ft 23 kts 359°
2026-05-08 18:32 41.28356 28.75343 180 ft 25 kts 359°
2026-05-08 18:32 41.28539 28.75340 180 ft 27 kts 359°
2026-05-08 18:32 41.28716 28.75337 180 ft 25 kts 359°
2026-05-08 18:32 41.28895 28.75333 180 ft 26 kts 359°
2026-05-08 18:33 41.28967 28.75452 180 ft 16 kts 91°
2026-05-08 18:33 41.28967 28.75471 180 ft 0 kts 89°
2026-05-08 18:34 41.28967 28.75514 180 ft 11 kts 89°
2026-05-08 18:34 41.28929 28.75617 181 ft 8 kts 167°
2026-05-08 18:34 41.28920 28.75618 181 ft 0 kts 176°
2026-05-08 18:35 41.28919 28.75618 181 ft 1 kts 176°
2026-05-08 18:36 41.28721 28.75624 180 ft 70 kts 179°
2026-05-08 18:36 41.27970 28.75638 179 ft 141 kts 179°
2026-05-08 18:36 41.26818 28.75673 383 ft 179 kts 179°
2026-05-08 18:36 41.25543 28.75766 1111 ft 191 kts 172°
2026-05-08 18:37 41.24281 28.76564 1413 ft 217 kts 146°
2026-05-08 18:37 41.23015 28.77809 1728 ft 242 kts 146°
2026-05-08 18:37 41.21577 28.79208 2203 ft 261 kts 147°
2026-05-08 18:37 41.20103 28.80601 3081 ft 264 kts 147°
2026-05-08 18:38 41.18785 28.82287 4041 ft 268 kts 123°
2026-05-08 18:38 41.18277 28.84678 4947 ft 277 kts 95°
2026-05-08 18:38 41.18280 28.87248 5813 ft 280 kts 94°
2026-05-08 18:38 41.18383 28.89850 6638 ft 288 kts 83°
2026-05-08 18:39 41.19235 28.92300 7390 ft 301 kts 52°
2026-05-08 18:39 41.20908 28.93978 8141 ft 308 kts 22°
2026-05-08 18:39 41.23012 28.94451 8895 ft 310 kts 359°
2026-05-08 18:39 41.25157 28.94223 9661 ft 311 kts 343°
2026-05-08 18:40 41.27129 28.93053 10229 ft 317 kts 321°
2026-05-08 18:40 41.28674 28.90894 10393 ft 332 kts 299°
2026-05-08 18:40 41.29919 28.88222 10782 ft 345 kts 298°
2026-05-08 18:40 41.31188 28.85488 11393 ft 350 kts 298°
2026-05-08 18:41 41.32477 28.82728 12030 ft 353 kts 298°
2026-05-08 18:41 41.33787 28.79943 12662 ft 357 kts 299°
2026-05-08 18:41 41.34664 28.78086 13083 ft 359 kts 299°
2026-05-08 18:41 41.36003 28.75252 13719 ft 362 kts 298°
2026-05-08 18:42 41.37346 28.72399 14317 ft 364 kts 298°
2026-05-08 18:42 41.38691 28.69536 14908 ft 366 kts 298°
2026-05-08 18:42 41.40043 28.66661 15512 ft 366 kts 298°
2026-05-08 18:42 41.41396 28.63777 16111 ft 367 kts 298°
2026-05-08 18:43 41.42752 28.60883 16701 ft 368 kts 298°
2026-05-08 18:43 41.44112 28.57988 17293 ft 369 kts 298°
2026-05-08 18:43 41.45479 28.55078 17895 ft 370 kts 298°
2026-05-08 18:43 41.46845 28.52163 18475 ft 372 kts 298°
2026-05-08 18:44 41.48215 28.49234 18996 ft 373 kts 299°
2026-05-08 18:44 41.49590 28.46286 19513 ft 375 kts 299°
2026-05-08 18:44 41.50970 28.43324 19990 ft 377 kts 299°
2026-05-08 18:44 41.52359 28.40334 20468 ft 380 kts 298°
2026-05-08 18:45 41.53760 28.37318 20898 ft 384 kts 298°
2026-05-08 18:45 41.55174 28.34272 21294 ft 387 kts 298°
2026-05-08 18:45 41.56600 28.31201 21723 ft 390 kts 298°
2026-05-08 18:45 41.58034 28.28114 22160 ft 393 kts 298°
2026-05-08 18:46 41.59479 28.25003 22602 ft 395 kts 298°
2026-05-08 18:46 41.60917 28.21907 23010 ft 398 kts 299°
2026-05-08 18:46 41.62378 28.18750 23417 ft 401 kts 298°
2026-05-08 18:46 41.63850 28.15568 23794 ft 404 kts 298°
2026-05-08 18:47 41.65327 28.12365 24022 ft 406 kts 298°
2026-05-08 18:47 41.66810 28.09141 24075 ft 406 kts 298°
2026-05-08 18:47 41.68292 28.05917 24081 ft 406 kts 298°
2026-05-08 18:47 41.69771 28.02696 24080 ft 406 kts 298°
2026-05-08 18:48 41.71249 27.99478 24086 ft 406 kts 298°
2026-05-08 18:48 41.72739 27.96237 24429 ft 409 kts 298°
2026-05-08 18:48 41.74214 27.93020 24787 ft 411 kts 298°
2026-05-08 18:48 41.75714 27.89747 25136 ft 414 kts 299°
2026-05-08 18:49 41.77224 27.86452 25472 ft 416 kts 299°
2026-05-08 18:49 41.78765 27.83090 25807 ft 419 kts 299°
2026-05-08 18:49 41.80290 27.79753 26148 ft 422 kts 299°
2026-05-08 18:49 41.81805 27.76429 26505 ft 425 kts 299°
2026-05-08 18:50 41.83347 27.73035 26875 ft 427 kts 299°
2026-05-08 18:50 41.84901 27.69616 27164 ft 431 kts 299°
2026-05-08 18:50 41.86464 27.66170 27456 ft 434 kts 299°
2026-05-08 18:50 41.88038 27.62693 27763 ft 437 kts 299°
2026-05-08 18:51 41.89627 27.59184 28072 ft 439 kts 299°
2026-05-08 18:51 41.91220 27.55666 28378 ft 442 kts 299°
2026-05-08 18:51 41.92824 27.52123 28697 ft 445 kts 299°
2026-05-08 18:51 41.94435 27.48566 28998 ft 447 kts 299°
2026-05-08 18:52 41.96058 27.44979 29302 ft 451 kts 299°
2026-05-08 18:52 41.97692 27.41360 29583 ft 454 kts 299°
2026-05-08 18:52 41.99331 27.37726 29866 ft 456 kts 299°
2026-05-08 18:52 42.00976 27.34068 30160 ft 459 kts 299°
2026-05-08 18:53 42.02631 27.30381 30412 ft 461 kts 299°
2026-05-08 18:53 42.04289 27.26682 30688 ft 463 kts 299°
2026-05-08 18:53 42.05973 27.22978 30966 ft 465 kts 302°
2026-05-08 18:53 42.07953 27.19524 31305 ft 467 kts 310°
2026-05-08 18:54 42.10124 27.16282 31672 ft 466 kts 310°
2026-05-08 18:54 42.12289 27.13040 32080 ft 465 kts 310°
2026-05-08 18:54 42.14419 27.09839 32470 ft 464 kts 310°
2026-05-08 18:54 42.16566 27.06605 32874 ft 462 kts 310°
2026-05-08 18:55 42.20845 27.00152 33697 ft 460 kts 310°
2026-05-08 18:55 42.22977 26.96933 34019 ft 460 kts 310°
2026-05-08 18:56 42.27199 26.90539 34065 ft 453 kts 310°
2026-05-08 18:56 42.31386 26.84182 34060 ft 452 kts 310°
2026-05-08 18:57 42.35567 26.77831 34056 ft 452 kts 311°
2026-05-08 18:57 42.39747 26.71476 34056 ft 453 kts 310°
2026-05-08 18:58 42.43930 26.65088 34062 ft 454 kts 310°
2026-05-08 18:58 42.48117 26.58685 34064 ft 454 kts 310°
2026-05-08 18:59 42.51688 26.51702 34064 ft 450 kts 292°
2026-05-08 18:59 42.53286 26.43596 34069 ft 444 kts 272°
2026-05-08 19:00 42.52922 26.35308 34057 ft 440 kts 260°
2026-05-08 19:00 42.52108 26.27074 34054 ft 441 kts 260°
2026-05-08 19:01 42.51294 26.18888 34052 ft 441 kts 260°
2026-05-08 19:01 42.50463 26.10651 34054 ft 441 kts 260°
2026-05-08 19:02 42.49635 26.02412 34060 ft 441 kts 260°
2026-05-08 19:02 42.48803 25.94167 34053 ft 442 kts 260°
2026-05-08 19:03 42.47959 25.85910 34046 ft 442 kts 260°
2026-05-08 19:03 42.47110 25.77660 34047 ft 442 kts 260°
2026-05-08 19:04 42.46250 25.69388 34051 ft 443 kts 259°
2026-05-08 19:04 42.45381 25.61130 34057 ft 443 kts 259°
2026-05-08 19:05 42.44509 25.52884 34056 ft 442 kts 259°
2026-05-08 19:05 42.43638 25.44685 34052 ft 443 kts 259°
2026-05-08 19:06 42.42757 25.36416 34048 ft 443 kts 259°
2026-05-08 19:06 42.41869 25.28141 34040 ft 444 kts 259°
2026-05-08 19:07 42.40973 25.19875 34053 ft 444 kts 259°
2026-05-08 19:07 42.40066 25.11608 34053 ft 444 kts 259°
2026-05-08 19:08 42.39158 25.03340 34048 ft 444 kts 259°
2026-05-08 19:08 42.38244 24.95076 34047 ft 444 kts 260°
2026-05-08 19:09 42.37328 24.86816 34050 ft 444 kts 259°
2026-05-08 19:09 42.36401 24.78571 34043 ft 443 kts 259°
2026-05-08 19:10 42.35468 24.70331 34049 ft 443 kts 259°
2026-05-08 19:10 42.34530 24.62091 34047 ft 443 kts 259°
2026-05-08 19:11 42.33585 24.53861 34053 ft 443 kts 259°
2026-05-08 19:11 42.32649 24.45679 34050 ft 443 kts 259°
2026-05-08 19:12 42.31697 24.37460 34050 ft 443 kts 260°
2026-05-08 19:12 42.30738 24.29258 34061 ft 441 kts 260°
2026-05-08 19:13 42.29775 24.21067 34070 ft 441 kts 260°
2026-05-08 19:13 42.28812 24.12899 34069 ft 440 kts 260°
2026-05-08 19:14 42.27842 24.04746 34071 ft 439 kts 260°
2026-05-08 19:14 42.26867 23.96608 34079 ft 438 kts 260°
2026-05-08 19:15 42.25895 23.88500 34080 ft 437 kts 260°
2026-05-08 19:15 42.25409 23.84463 33806 ft 435 kts 260°
2026-05-08 19:15 42.24927 23.80484 33238 ft 434 kts 260°
2026-05-08 19:15 42.24438 23.76470 33029 ft 434 kts 260°
2026-05-08 19:16 42.23944 23.72443 33071 ft 435 kts 260°
2026-05-08 19:16 42.22954 23.64378 33068 ft 435 kts 260°
2026-05-08 19:17 42.21962 23.56331 33073 ft 435 kts 260°
2026-05-08 19:17 42.20966 23.48289 33082 ft 435 kts 260°
2026-05-08 19:18 42.19960 23.40247 33073 ft 434 kts 260°
2026-05-08 19:18 42.18955 23.32234 33076 ft 433 kts 261°
2026-05-08 19:19 42.17950 23.24230 33077 ft 432 kts 260°
2026-05-08 19:19 42.16938 23.16248 33074 ft 432 kts 260°
2026-05-08 19:20 42.15915 23.08273 33074 ft 431 kts 260°
2026-05-08 19:20 42.14890 23.00317 33079 ft 431 kts 260°
2026-05-08 19:21 42.13864 22.92368 33073 ft 430 kts 260°
2026-05-08 19:21 42.12830 22.84427 33071 ft 430 kts 260°
2026-05-08 19:22 42.11798 22.76495 33069 ft 430 kts 260°
2026-05-08 19:22 42.10935 22.69923 33057 ft 428 kts 260°
2026-05-08 19:23 42.09718 22.60785 33069 ft 426 kts 259°
2026-05-08 19:23 42.08374 22.53029 33061 ft 425 kts 255°
2026-05-08 19:24 42.07041 22.46597 33072 ft 426 kts 255°
2026-05-08 19:24 42.05445 22.38945 33071 ft 423 kts 255°
2026-05-08 19:25 42.03924 22.31368 33060 ft 422 kts 256°
2026-05-08 19:25 42.02416 22.23735 33063 ft 422 kts 256°
2026-05-08 19:26 42.00906 22.16109 33068 ft 422 kts 256°
2026-05-08 19:26 41.99387 22.08473 33065 ft 422 kts 255°
2026-05-08 19:27 41.97850 22.00852 33059 ft 422 kts 255°
2026-05-08 19:27 41.96310 21.93241 33068 ft 422 kts 255°
2026-05-08 19:28 41.94782 21.85632 33076 ft 422 kts 255°
2026-05-08 19:28 41.93237 21.78016 33077 ft 423 kts 255°
2026-05-08 19:29 41.91687 21.70421 33090 ft 423 kts 255°
2026-05-08 19:29 41.90128 21.62805 33081 ft 422 kts 255°
2026-05-08 19:30 41.88566 21.55200 33052 ft 422 kts 255°
2026-05-08 19:30 41.86998 21.47603 33054 ft 422 kts 255°
2026-05-08 19:31 41.85425 21.40010 33048 ft 422 kts 255°
2026-05-08 19:31 41.83846 21.32421 33053 ft 422 kts 255°
2026-05-08 19:32 41.82264 21.24843 33062 ft 422 kts 255°
2026-05-08 19:32 41.80687 21.17279 33058 ft 420 kts 255°
2026-05-08 19:33 41.79104 21.09749 33060 ft 421 kts 254°
2026-05-08 19:33 41.77517 21.02242 33060 ft 421 kts 254°
2026-05-08 19:34 41.75917 20.94684 33063 ft 421 kts 255°
2026-05-08 19:34 41.74324 20.87128 33061 ft 421 kts 254°
2026-05-08 19:35 41.72718 20.79578 33059 ft 421 kts 254°
2026-05-08 19:35 41.71102 20.72043 33053 ft 420 kts 255°
2026-05-08 19:36 41.69487 20.64540 33060 ft 419 kts 254°
2026-05-08 19:36 41.68433 20.56903 33050 ft 418 kts 269°
2026-05-08 19:37 41.69356 20.49245 33048 ft 420 kts 289°
2026-05-08 19:37 41.72064 20.42390 33051 ft 419 kts 301°
2026-05-08 19:38 41.75181 20.35825 32495 ft 416 kts 301°
2026-05-08 19:38 41.76742 20.32521 31969 ft 413 kts 301°
2026-05-08 19:38 41.78265 20.29289 31295 ft 408 kts 300°
2026-05-08 19:38 41.79755 20.26125 30606 ft 405 kts 300°
2026-05-08 19:39 41.81257 20.22945 29877 ft 402 kts 300°
2026-05-08 19:39 41.82744 20.19788 29106 ft 399 kts 300°
2026-05-08 19:39 41.84241 20.16606 28361 ft 396 kts 300°
2026-05-08 19:39 41.85679 20.13543 27701 ft 392 kts 300°
2026-05-08 19:40 41.87125 20.10460 27052 ft 387 kts 300°
2026-05-08 19:40 41.88552 20.07418 26428 ft 384 kts 300°
2026-05-08 19:40 41.89969 20.04386 25817 ft 380 kts 300°
2026-05-08 19:40 41.91363 20.01398 25221 ft 376 kts 300°
2026-05-08 19:41 41.92748 19.98436 24647 ft 373 kts 300°
2026-05-08 19:41 41.94120 19.95500 24064 ft 369 kts 300°
2026-05-08 19:41 41.95474 19.92594 23445 ft 365 kts 300°
2026-05-08 19:41 41.96817 19.89711 22767 ft 362 kts 300°
2026-05-08 19:42 41.98153 19.86854 22122 ft 359 kts 300°
2026-05-08 19:42 41.99473 19.84025 21504 ft 356 kts 300°
2026-05-08 19:42 42.00780 19.81214 20864 ft 353 kts 300°
2026-05-08 19:42 42.02076 19.78418 20221 ft 350 kts 300°
2026-05-08 19:43 42.03362 19.75645 19593 ft 348 kts 300°
2026-05-08 19:43 42.04637 19.72897 18996 ft 345 kts 300°
2026-05-08 19:43 42.05890 19.70200 18413 ft 343 kts 300°
2026-05-08 19:43 42.07146 19.67489 17783 ft 340 kts 300°
2026-05-08 19:44 42.08389 19.64801 17119 ft 337 kts 300°
2026-05-08 19:44 42.09621 19.62125 16473 ft 335 kts 300°
2026-05-08 19:44 42.10849 19.59456 15977 ft 335 kts 300°
2026-05-08 19:44 42.12074 19.56796 15587 ft 333 kts 300°
2026-05-08 19:45 42.13293 19.54147 15224 ft 333 kts 300°
2026-05-08 19:45 42.14509 19.51499 14835 ft 332 kts 300°
2026-05-08 19:45 42.15724 19.48852 14455 ft 332 kts 300°
2026-05-08 19:45 42.16937 19.46212 14076 ft 330 kts 300°
2026-05-08 19:46 42.18146 19.43586 13694 ft 330 kts 301°
2026-05-08 19:46 42.19351 19.40961 13282 ft 328 kts 301°
2026-05-08 19:46 42.22358 19.36389 12453 ft 327 kts 322°
2026-05-08 19:47 42.24129 19.34482 12046 ft 324 kts 311°
2026-05-08 19:47 42.25290 19.31920 11649 ft 320 kts 289°
2026-05-08 19:47 42.25732 19.28993 11253 ft 318 kts 271°
2026-05-08 19:47 42.25536 19.26039 10870 ft 315 kts 255°
2026-05-08 19:48 42.24728 19.23307 10479 ft 314 kts 238°
2026-05-08 19:48 42.23365 19.21034 10093 ft 312 kts 220°
2026-05-08 19:48 42.21588 19.19461 9699 ft 310 kts 202°
2026-05-08 19:48 42.19564 19.18617 9551 ft 299 kts 194°
2026-05-08 19:49 42.17586 19.17918 9417 ft 290 kts 195°
2026-05-08 19:49 42.15664 19.17224 9225 ft 283 kts 195°
2026-05-08 19:49 42.13773 19.16538 9022 ft 280 kts 195°
2026-05-08 19:49 42.11917 19.15866 8998 ft 270 kts 195°
2026-05-08 19:50 42.10147 19.15227 8956 ft 260 kts 195°
2026-05-08 19:50 42.08426 19.14506 8691 ft 257 kts 205°
2026-05-08 19:50 42.06927 19.13217 8413 ft 256 kts 221°
2026-05-08 19:50 42.05779 19.11405 7989 ft 256 kts 238°
2026-05-08 19:51 42.05034 19.09209 7477 ft 260 kts 249°
2026-05-08 19:51 42.04382 19.06937 7022 ft 261 kts 248°
2026-05-08 19:51 42.03720 19.04657 6645 ft 261 kts 248°
2026-05-08 19:51 42.03057 19.02381 6234 ft 261 kts 248°
2026-05-08 19:52 42.02403 19.00129 6025 ft 257 kts 248°
2026-05-08 19:52 42.01809 18.97862 6016 ft 259 kts 259°
2026-05-08 19:52 42.01879 18.95482 5794 ft 255 kts 289°
2026-05-08 19:52 42.02795 18.93488 5371 ft 252 kts 320°
2026-05-08 19:53 42.04282 18.92315 4951 ft 248 kts 341°
2026-05-08 19:53 42.05901 18.91494 4472 ft 250 kts 342°
2026-05-08 19:53 42.07529 18.90669 4150 ft 250 kts 341°
2026-05-08 19:53 42.09143 18.89847 4003 ft 244 kts 341°
2026-05-08 19:54 42.10684 18.89057 4003 ft 229 kts 341°
2026-05-08 19:54 42.12125 18.88314 4008 ft 217 kts 341°
2026-05-08 19:54 42.13516 18.87597 3978 ft 215 kts 341°
2026-05-08 19:54 42.14908 18.86875 4036 ft 215 kts 341°
2026-05-08 19:55 42.16309 18.86136 3962 ft 217 kts 340°
2026-05-08 19:55 42.17701 18.85386 3676 ft 214 kts 339°
2026-05-08 19:55 42.19059 18.84565 3354 ft 213 kts 336°
2026-05-08 19:55 42.20404 18.83755 3054 ft 209 kts 341°
2026-05-08 19:56 42.21794 18.83164 2922 ft 210 kts 346°
2026-05-08 19:56 42.23211 18.82709 2799 ft 209 kts 348°
2026-05-08 19:56 42.24628 18.82242 2696 ft 209 kts 345°
2026-05-08 19:56 42.25998 18.81598 2613 ft 208 kts 336°
2026-05-08 19:57 42.27286 18.80685 2510 ft 209 kts 329°
2026-05-08 19:57 42.28512 18.79654 2409 ft 205 kts 327°
2026-05-08 19:57 42.29677 18.78715 2308 ft 185 kts 340°
2026-05-08 19:57 42.30883 18.78287 1968 ft 178 kts 353°
2026-05-08 19:58 42.32081 18.78093 1710 ft 170 kts 354°
2026-05-08 19:58 42.33231 18.77953 1499 ft 159 kts 353°
2026-05-08 19:58 42.34245 18.77644 1397 ft 144 kts 342°
2026-05-08 19:58 42.35170 18.77219 1142 ft 138 kts 341°
2026-05-08 19:59 42.36067 18.76781 938 ft 137 kts 341°
2026-05-08 19:59 42.36948 18.76296 697 ft 137 kts 333°
2026-05-08 19:59 42.37749 18.75614 523 ft 136 kts 316°
2026-05-08 19:59 42.38467 18.74771 379 ft 136 kts 310°
2026-05-08 20:00 42.39134 18.73869 183 ft 135 kts 320°
2026-05-08 20:00 42.39845 18.73060 32 ft 131 kts 319°
2026-05-08 20:00 42.40409 18.72400 22 ft 69 kts 318°
2026-05-08 20:00 42.40685 18.72078 18 ft 49 kts 320°
2026-05-08 20:01 42.40904 18.71818 19 ft 24 kts 328°
2026-05-08 20:01 42.41005 18.71856 19 ft 9 kts
2026-05-08 20:01 42.41061 18.71806 18 ft 11 kts 316°
2026-05-08 20:01 42.41120 18.71770 18 ft 8 kts 21°
2026-05-08 20:02 42.41128 18.71779 18 ft 0 kts 48°
2026-05-08 20:03 42.41133 18.71786 20 ft 2 kts 43°
2026-05-08 20:03 42.41134 18.71787 20 ft 0 kts 45°